Regional Weather Roundup
Issued by NWS Cleveland, OH

Home | Current Version | Previous Version | Text Only | Print | Product List | Glossary Off
Versions: 1 2 3 4 5 6 7 8 9 10 11 12 13 14 15 16 17 18 19 20 21 22 23 24 25 26 27 28 29 30 31 32 33 34 35 36 37 38 39 40 41 42 43 44 45 46 47 48 49 50

000
ASUS41 KCLE 232202
RWRCLE
OHIO REGIONAL WEATHER ROUNDUP
NATIONAL WEATHER SERVICE CLEVELAND, OH
600 PM EDT WED APR 23 2014

NOTE: "FAIR" INDICATES FEW OR NO CLOUDS BELOW 12,000 FEET WITH NO
SIGNIFICANT WEATHER AND/OR OBSTRUCTIONS TO VISIBILITY.

OHZ001>008-015>018-024>027-034-035-043-044-232300-
   NORTHWEST OHIO

CITY           SKY/WX    TMP DP  RH WIND       PRES   REMARKS
DEFIANCE       SUNNY     59  24  26 N9        30.07F
FINDLAY        SUNNY     56  28  34 N7        30.06F
TOLEDO EXPRESS SUNNY     57  20  23 N10G16    30.07S
TOLEDO EXEC    SUNNY     56  28  34 NE9       30.08F
LIMA           SUNNY     57  30  35 NE12      30.06F
$$

OHZ009>014-019>023-028>033-038-089-232300-
   NORTHEAST OHIO

CITY           SKY/WX    TMP DP  RH WIND       PRES   REMARKS
CLE-HOPKINS    MOSUNNY   51  29  42 N13       30.11S
CLE-LAKEFRONT  SUNNY     45  35  68 W12       30.08S
CUY CO. ARPT   NOT AVBL
LORAIN-ELYRIA  SUNNY     51  29  42 N7        30.10R
ASHTABULA      SUNNY     45  19  35 NW13G23   30.06S
AKRON-CANTON   MOSUNNY   49  27  42 NW7       30.06S
WOOSTER        MOSUNNY   49  31  49 NW14      30.08S
MANSFIELD      SUNNY     49  32  52 N9        30.08R
YOUNGSTOWN     MOSUNNY   48  23  37 NW14G23   30.03S
$$

OHZ042-051>053-060>062-070>072-077>081-232300-
  SOUTHWEST OHIO

CITY           SKY/WX    TMP DP  RH WIND       PRES   REMARKS
CINC-COVINGTON MOSUNNY   60  30  32 N10       30.05
CINC-LUNKEN    SUNNY     59  33  37 NE7       30.06S
HAMILTON       SUNNY     61  35  37 MISG      30.07S
DAYTON         MOSUNNY   58  32  37 N7        30.07S
WRIGHT-PAT AFB SUNNY     58  32  37 NW8       30.06S
DAYTON GENERAL SUNNY     58  32  37 N9        30.05S
WILMINGTON     SUNNY     58  32  37 N8        30.04F
$$

OHZ036-037-039>041-045>050-054>059-063>069-073>076-082>088-232300-
  CENTRAL AND SOUTHEAST OHIO

CITY           SKY/WX    TMP DP  RH WIND       PRES   REMARKS
COLUMBUS       MOSUNNY   57  31  37 N14       30.05F
OSU AIRPORT    SUNNY     55  32  41 N12       30.05F
BOLTON FIELD   SUNNY     55  36  47 N13       30.06S
RICKENBACK AFB NOT AVBL
NEWARK         MOSUNNY   55  32  41 NW13      30.05S
MARION         SUNNY     53  31  42 VRB7      30.08S
LANCASTER      SUNNY     56  32  40 N12       30.06S
ZANESVILLE     MOSUNNY   53  31  42 NW14      30.05R
NEW PHILLY     SUNNY     48  30  49 NW9       30.07F
$$



USA.gov is the U.S. government's official web portal to all federal, state and local government web resources and services.